This is the latest recevied weather packets stored in our database for station/object N4DWK. If no packets are shown the sender has not sent any weather packets the latest 10 day(s).
| Time | Temp. | Humidity | Pressure | Rain* | Wind** | Luminosity | Snow |
|---|---|---|---|---|---|---|---|
| 1788626409 | 24.44° C | 93% | 1013.5 hPa | 7.87 mm | - | 0 W/m² | - |
| 1788626108 | 24.44° C | 92% | 1013.3 hPa | 6.1 mm | - | 0 W/m² | - |
| 1788625808 | 25° C | 91% | 1013.3 hPa | 5.59 mm | - | 0 W/m² | - |
| 1788625508 | 25.56° C | 90% | 1013.1 hPa | 4.83 mm | - | 0 W/m² | - |
| 1788625208 | 26.11° C | 89% | 1013.3 hPa | 2.79 mm | - | 0 W/m² | - |
| 1788624908 | 26.67° C | 87% | 1013.1 hPa | 1.02 mm | - | 0 W/m² | - |
| 1788624608 | 26.67° C | 85% | 1012.8 hPa | 0 mm | - | 0 W/m² | - |
| 1788624308 | 27.22° C | 83% | 1012.5 hPa | 0 mm | - | 5 W/m² | - |
| 1788624008 | 27.22° C | 81% | 1012.5 hPa | 0 mm | - | 11 W/m² | - |
| 1788623711 | 27.22° C | 82% | 1012.1 hPa | 0 mm | - | 11 W/m² | - |
| 1788623408 | 27.22° C | 81% | 1011.8 hPa | 0 mm | - | 35 W/m² | - |
| 1788623108 | 27.78° C | 82% | 1011.7 hPa | 0 mm | - | 95 W/m² | - |
| 1788622808 | 27.78° C | 81% | 1011.8 hPa | 0 mm | - | 90 W/m² | - |
| 1788622508 | 27.78° C | 80% | 1011.8 hPa | 0 mm | - | 102 W/m² | - |
| 1788622208 | 27.78° C | 79% | 1011.8 hPa | 0 mm | - | 93 W/m² | - |
| 1788621907 | 27.78° C | 79% | 1011.9 hPa | 0 mm | - | 109 W/m² | - |
| 1788621608 | 27.78° C | 78% | 1012 hPa | 0 mm | - | 86 W/m² | - |
| 1788621308 | 27.78° C | 78% | 1012.2 hPa | 0 mm | - | 79 W/m² | - |
| 1788621008 | 27.78° C | 78% | 1012.2 hPa | 0 mm | - | 77 W/m² | - |
| 1788620712 | 27.78° C | 78% | 1012.1 hPa | 0 mm | - | 91 W/m² | - |
| 1788620408 | 28.33° C | 79% | 1012.2 hPa | 0 mm | - | 98 W/m² | - |
| 1788620108 | 28.33° C | 79% | 1012.1 hPa | 0 mm | - | 132 W/m² | - |
| 1788619809 | 28.33° C | 79% | 1012 hPa | 0 mm | - | 114 W/m² | - |
| 1788619508 | 28.33° C | 79% | 1012 hPa | 0 mm | - | 118 W/m² | - |
| 1788619208 | 28.33° C | 80% | 1012 hPa | 0 mm | - | 118 W/m² | - |
* Rain latest hour (hover to see other rain measurements)
** Current wind speed in m/s (hover to see current wind gust speed)